HC6AC-18 Weather Reports


time (UTC)temp
F
wind
direction
speed
knots
gust
knots
rain 1hr
in
rain 24hr
in
rain mn
in
humidity
%
barometer
mb
20260507101833 58 83 0.0 1.7 0.00 0.00 0.00 96 1019.0
20260507100832 62 83 0.0 1.7 0.00 0.00 0.00 96 1019.0
20260507095832 54 83 0.0 1.7 0.00 0.00 0.00 98 1019.0
20260507094831 58 83 0.0 1.7 0.00 0.00 0.00 98 1019.0
20260507093830 62 83 0.0 1.7 0.00 0.00 0.00 98 1019.0
20260507092829 55 20 0.0 1.7 0.00 0.00 0.00 98 1019.0
20260507091829 59 20 0.0 1.7 0.00 0.00 0.00 98 1019.0
20260507090828 63 20 0.0 1.7 0.00 0.00 0.00 98 1019.0
20260507085827 56 20 0.0 1.7 0.00 0.00 0.00 97 1019.0
20260507084827 60 20 0.0 1.7 0.00 0.00 0.00 97 1019.0
20260507083826 64 20 0.0 1.7 0.00 0.00 0.00 97 1019.0
20260507082825 54 16 0.0 1.7 0.01 0.00 0.00 97 1019.0
20260507081824 58 16 0.0 1.7 0.00 0.00 0.00 97 1019.0
20260507080824 62 16 0.0 1.7 0.01 0.00 0.00 97 1019.0
20260507075823 56 16 0.0 1.7 0.01 0.00 0.00 98 1019.0
20260507074822 60 16 0.0 1.7 0.00 0.00 0.00 98 1019.0
20260507073821 64 16 0.0 1.7 0.01 0.00 0.00 98 1019.0
20260507072820 61 7 0.0 2.6 0.02 0.00 0.00 98 1019.0
20260507071820 54 7 0.0 2.6 0.02 0.00 0.00 98 1019.0
20260507070819 58 7 0.0 2.6 0.00 0.00 0.00 98 1019.0
20260507065818 62 7 0.0 2.6 0.02 0.00 0.00 98 1019.0
20260507064817 59 7 0.0 2.6 0.02 0.00 0.00 98 1019.0
20260507063817 55 7 0.0 2.6 0.02 0.00 0.00 98 1019.0
20260507062816 59 103 0.0 2.6 0.00 0.00 0.00 98 1020.0
20260507061815 63 103 0.0 2.6 0.02 0.00 0.00 98 1020.0
20260507060814 56 103 0.0 2.6 0.02 0.00 0.00 97 1020.0
20260507055814 60 103 0.0 2.6 0.00 0.00 0.00 97 1020.0
20260507054813 64 103 0.0 2.6 0.02 0.00 0.00 97 1020.0
20260507053812 61 103 0.0 2.6 0.02 0.00 0.00 97 1020.0
20260507052812 58 91 0.9 2.6 0.02 0.00 0.00 97 1021.0
20260507051811 54 91 0.9 2.6 0.02 0.00 0.00 97 1021.0
20260507050810 58 91 0.9 2.6 0.00 0.00 0.00 97 1021.0
20260507045809 62 91 0.9 2.6 0.02 0.00 0.00 97 1021.0
20260507044809 59 91 0.9 2.6 0.02 0.00 0.00 97 1021.0
20260507043808 55 54 0.9 2.6 0.02 0.00 0.00 97 1021.0
20260507042807 59 54 0.9 2.6 0.00 0.00 0.00 97 1021.0
20260507041807 63 54 0.9 2.6 0.02 0.00 0.00 97 1021.0
20260507040806 59 54 0.9 2.6 0.00 0.00 0.00 97 1021.0
20260507035805 63 54 0.9 2.6 0.02 0.00 0.00 97 1021.0
20260507034805 59 54 0.9 2.6 0.02 0.00 0.00 99 1021.0